Weather History for KMEH - November, 2012

Change the Weather History Date:

Sunday, November 11, 2012

  Actual Average Record
Temperature  
Mean Temperature 27 °F -  
Max Temperature 35 °F 44 °F 60 °F (1996)
Min Temperature 19 °F 26 °F 10 °F (2000)
Degree Days  
Heating Degree Days 38    
Moisture  
Dew Point 23 °F    
Average Humidity 82    
Maximum Humidity 93    
Minimum Humidity 70    
Precipitation  
Precipitation 0.00 in - - ()
Sea Level Pressure  
Sea Level Pressure 30.28 in    
Wind  
Wind Speed 0 mph (North)    
Max Wind Speed 0 mph    
Max Gust Speed -    
Visibility 10 miles    
Events      
Averages and records for this station are not official NWS values.
T = Trace of Precipitation, MM = Missing Value Source: NWS Daily Summary

Daily Weather History Graph

Daily Weather History Graph

Search for Another Location

Airport or City:

Trip Planner

Search our weather history database for the weather conditions in past years. The results will help you decide how hot, cold, wet, or windy it might be!

Date:

Astronomy

Nov. 11, 2012 Rise Set
Actual Time 6:48 AM PST 4:27 PM PST
Civil Twilight 6:16 AM PST 4:58 PM PST
Nautical Twilight 5:40 AM PST 5:34 PM PST
Astronomical Twilight 5:05 AM PST 6:09 PM PST
Moon 4:01 AM PST (11/11) 2:58 PM PST (11/11)
Length of Visible Light 10h 42m
Length of Day
9h 38m
Waning Crescent, 6% of the Moon is Illuminated
Nov 11
Waning Crescent
Nov 13
New
Nov 20
First Quarter
Nov 28
Full
Dec 6
Last Quarter

Hourly Weather History & Observations

Time (PST) Temp. Dew Point Humidity Pressure Visibility Wind Dir Wind Speed Gust Speed Precip Events Conditions
12:42 AM 21.2 °F 19.4 °F 93% 30.12 in 10.0 mi Calm Calm - N/A   Mostly Cloudy
12:56 AM 21.0 °F 19.0 °F 92% 30.22 in 10.0 mi Calm Calm - N/A   Mostly Cloudy
1:56 AM 21.0 °F 19.0 °F 92% 30.24 in 10.0 mi Calm Calm - N/A   Overcast
2:56 AM 23.0 °F 21.0 °F 92% 30.24 in 10.0 mi Calm Calm - 0.00 in   Overcast
3:16 AM 23.0 °F 21.2 °F 93% 30.13 in 10.0 mi Calm Calm - N/A   Overcast
3:56 AM 21.9 °F 19.9 °F 92% 30.26 in 10.0 mi Calm Calm - N/A   Mostly Cloudy
4:04 AM 21.2 °F 19.4 °F 93% 30.15 in 10.0 mi Calm Calm - N/A   Scattered Clouds
4:56 AM 19.9 °F 18.0 °F 92% 30.28 in 10.0 mi Calm Calm - N/A   Mostly Cloudy
5:56 AM 21.0 °F 19.0 °F 92% 30.29 in 10.0 mi Calm Calm - N/A   Overcast
6:56 AM 23.0 °F 21.0 °F 92% 30.30 in 10.0 mi Calm Calm - N/A   Overcast
7:56 AM 25.0 °F 21.9 °F 88% 30.29 in 10.0 mi Calm Calm - N/A   Overcast
8:56 AM 28.0 °F 24.1 °F 85% 30.30 in 10.0 mi Calm Calm - N/A   Overcast
9:56 AM 30.9 °F 26.1 °F 82% 30.31 in 10.0 mi Calm Calm - N/A   Overcast
10:56 AM 32.0 °F 25.0 °F 75% 30.31 in 10.0 mi Calm Calm - N/A   Overcast
11:56 AM 34.0 °F 25.0 °F 70% 30.30 in 10.0 mi Calm Calm - N/A   Overcast
12:56 PM 34.0 °F 26.1 °F 73% 30.31 in 10.0 mi Calm Calm - N/A   Overcast
1:56 PM 35.1 °F 26.1 °F 70% 30.32 in 10.0 mi Calm Calm - N/A   Overcast
2:56 PM 34.0 °F 28.0 °F 79% 30.32 in 10.0 mi Calm Calm - N/A   Overcast
3:56 PM 33.1 °F 26.1 °F 75% 30.33 in 10.0 mi Calm Calm - N/A   Overcast
4:56 PM 30.9 °F 25.0 °F 79% 30.34 in 10.0 mi Calm Calm - N/A   Overcast
5:56 PM 30.9 °F 25.0 °F 79% 30.34 in 10.0 mi Calm Calm - N/A   Overcast
6:56 PM 30.9 °F 24.1 °F 76% 30.33 in 10.0 mi Calm Calm - N/A   Overcast
7:56 PM 30.9 °F 24.1 °F 76% 30.32 in 10.0 mi Calm Calm - N/A   Overcast
8:56 PM 30.9 °F 23.0 °F 72% 30.32 in 10.0 mi Calm Calm - N/A   Overcast
9:56 PM 30.0 °F 23.0 °F 75% 30.30 in 10.0 mi Calm Calm - N/A   Overcast
10:56 PM 30.0 °F 21.9 °F 72% 30.31 in 10.0 mi Calm Calm - N/A   Overcast
11:56 PM 30.0 °F 23.0 °F 75% 30.30 in 10.0 mi Calm Calm - N/A   Overcast